Theta_e
330 329 329 329 328 328 326 326 326 325 326 326 324 324 324 324 322 321 321 319 319 319 320 315 314 314 315 315 314 313 314 313 312 313 309 307 308 306 313 308 312 307 304 304 303 299 296 295 296 299 300 300 300 300 305 304 302 302 300 302 303 302 300
330 329 329 328 327 327 325 324 324 324 324 323 323 323 322 322 324 320 320 318 317 316 317 314 313 313 312 311 310 310 311 310 309 308 308 306 305 305 304 304 304 303 302 303 305 303 298 295 295 295 296 299 300 299 301 301 301 301 304 302 304 309 308
329 329 328 327 326 325 324 322 322 323 322 321 321 322 321 321 318 317 317 317 316 316 316 312 312 312 311 310 309 309 309 309 307 308 307 304 305 303 304 305 303 301 300 301 300 300 299 297 296 296 296 295 295 297 300 300 300 300 300 301 301 301 301
328 328 326 325 325 323 322 322 322 323 321 320 319 319 318 316 314 316 314 314 315 318 314 311 311 311 310 310 310 309 308 307 306 306 306 304 304 303 302 302 301 301 299 298 298 299 298 296 296 297 297 298 297 297 299 301 303 302 301 301 301 301 301
329 328 326 325 324 323 322 321 321 319 319 318 317 316 315 314 315 314 315 313 313 310 310 310 310 310 310 310 309 308 307 306 306 306 304 303 302 302 301 301 301 301 301 300 300 299 299 297 296 296 295 296 298 299 302 300 303 301 302 302 302 301 301
329 328 327 325 324 323 322 321 320 318 317 316 315 314 313 313 313 311 310 310 309 310 309 309 309 309 309 308 308 307 306 305 304 304 303 302 302 301 301 300 300 301 300 299 300 299 298 297 297 293 296 296 295 296 298 299 299 299 301 301 300 298 297
329 328 327 326 324 323 323 322 320 318 317 316 314 313 313 314 312 312 310 309 309 309 309 308 308 308 308 307 307 306 305 304 304 303 303 302 301 301 301 300 300 300 299 300 298 298 297 296 295 295 294 294 295 295 296 295 297 294 294 294 297 298 299
329 328 327 326 324 323 323 322 320 318 317 316 315 314 315 312 311 309 309 308 308 309 309 309 309 308 308 308 307 306 305 304 303 304 302 302 302 300 300 300 301 299 300 299 299 299 298 297 296 295 294 294 292 292 294 295 294 295 296 294 297 298 299
329 328 327 326 325 324 323 323 320 318 318 317 316 315 314 311 309 309 309 308 308 308 308 307 307 307 306 306 305 304 304 306 303 302 301 301 301 300 300 299 300 299 300 300 300 299 298 298 298 295 295 294 293 291 291 291 292 295 297 295 294 296 300
328 326 325 325 324 323 323 322 320 319 318 318 317 315 312 310 310 308 307 307 307 307 307 307 306 306 305 305 304 303 303 302 303 301 300 300 300 299 299 299 298 298 298 299 299 300 300 298 297 296 295 294 292 291 288 289 290 291 294 295 294 295 299
327 326 326 325 324 323 322 321 320 319 318 319 318 315 311 310 309 311 306 306 306 306 306 305 305 305 304 303 304 303 302 302 302 302 302 301 300 300 301 300 300 298 298 298 299 299 298 298 296 297 295 295 295 292 287 287 287 290 293 293 295 296 298
327 326 326 325 324 323 322 321 320 319 319 319 317 313 311 309 308 307 307 306 306 305 305 305 305 304 304 303 303 302 302 301 301 300 300 301 300 301 300 300 298 298 298 298 298 298 298 298 297 297 296 296 296 294 292 288 286 289 294 293 294 297 297
327 326 326 325 324 323 322 321 320 319 319 318 314 312 310 309 308 306 306 306 305 305 304 304 304 303 303 303 303 301 301 300 300 300 300 301 302 301 300 299 299 299 298 298 298 298 298 299 298 298 298 297 295 295 293 290 289 291 292 295 295 296 297
327 327 326 325 324 323 322 322 320 320 318 315 312 311 310 308 307 307 306 306 305 304 304 304 303 303 303 302 301 301 300 301 300 300 302 301 301 300 300 298 298 298 298 298 297 298 298 297 297 298 297 296 296 295 293 291 290 291 291 293 295 295 296
328 327 326 325 323 323 322 321 320 318 316 313 312 311 309 308 308 307 306 305 305 304 304 304 303 303 302 301 301 302 301 300 300 299 300 300 300 300 298 298 298 297 298 297 297 298 298 297 297 296 295 296 294 295 294 292 292 291 289 291 292 293 293
328 327 325 324 323 322 321 320 319 316 314 313 312 310 309 308 307 306 305 305 304 304 304 303 303 303 302 301 301 301 301 300 300 299 300 300 299 298 298 299 299 299 299 297 296 296 297 297 297 295 294 294 294 293 294 292 290 289 289 290 290 291 291
327 326 325 324 323 322 320 319 318 315 314 313 311 310 309 308 307 306 305 304 304 304 303 303 303 302 302 301 301 300 300 300 300 300 300 299 299 299 299 298 298 299 298 296 295 294 295 295 295 294 293 293 293 293 293 292 292 290 290 288 289 290 292
326 326 325 324 322 321 320 318 317 315 314 312 311 310 309 308 307 305 305 304 304 303 303 303 303 301 301 301 301 300 300 300 300 300 300 300 304 300 300 299 299 297 296 295 293 293 293 293 293 293 292 292 292 292 293 292 291 290 288 288 289 289 290
326 325 325 324 322 321 320 318 316 314 314 312 311 310 309 308 307 305 305 304 304 304 303 303 302 301 301 302 301 301 301 300 300 300 301 302 301 301 300 299 298 296 294 293 292 291 292 292 292 291 290 290 290 290 289 290 291 289 289 288 289 289 289
326 325 324 323 321 320 319 318 316 314 313 312 311 309 309 308 307 306 305 304 304 304 303 303 302 301 302 302 301 301 300 300 300 301 301 301 300 300 298 297 296 295 293 292 291 291 291 291 293 291 292 291 290 289 289 289 290 289 288 288 287 288 288
327 325 324 322 321 320 319 318 316 314 313 311 311 310 308 308 307 306 305 304 304 304 303 302 301 301 301 301 301 301 301 300 301 300 300 299 299 298 297 295 294 294 293 292 291 290 291 291 290 290 290 290 290 289 288 290 289 289 288 288 288 288 287
326 325 322 321 320 319 318 317 316 314 313 312 311 310 309 308 306 305 304 304 304 304 303 302 302 302 301 301 301 301 301 301 300 299 298 298 297 296 295 295 294 292 297 301 302 299 298 297 292 290 291 290 291 289 288 289 289 288 289 288 289 288 287
325 323 321 320 319 319 318 317 316 314 313 312 311 310 308 307 306 305 304 303 303 303 303 303 306 305 304 303 301 301 300 300 299 299 299 297 295 295 294 294 298 306 304 304 303 301 300 301 303 294 290 290 291 289 290 289 289 289 290 289 288 287 288
323 321 321 320 319 318 317 316 315 314 313 312 311 309 307 306 305 304 304 303 302 303 303 304 302 298 299 302 302 300 299 299 299 299 298 297 294 294 293 294 297 304 304 304 299 297 296 296 296 297 297 300 300 292 290 289 289 288 290 289 288 287 287
321 321 320 319 318 317 316 315 314 313 312 311 310 309 307 306 304 303 303 303 302 302 302 304 297 297 298 299 302 301 299 299 299 298 298 297 295 294 293 294 295 298 295 295 293 293 296 296 294 294 294 294 293 295 297 293 292 290 288 288 288 289 287
321 320 319 319 318 317 315 314 313 312 311 311 310 308 307 305 303 303 303 302 302 302 302 298 296 297 297 297 298 301 300 300 299 298 298 298 296 294 294 294 295 296 297 304 302 292 293 296 299 296 296 297 297 296 293 292 294 295 290 288 288 288 288
320 319 319 318 317 316 314 313 313 312 311 310 309 308 306 304 303 303 303 302 302 302 301 298 296 297 296 296 296 299 300 300 299 299 298 298 297 295 294 293 294 295 294 298 295 293 292 290 289 289 289 290 291 295 296 296 293 293 295 292 289 289 290
320 319 318 317 316 315 314 313 312 311 310 309 308 306 305 303 303 303 303 302 301 300 301 297 296 295 295 296 295 298 300 301 299 298 299 298 298 296 294 295 294 295 295 295 295 293 290 289 289 290 289 291 291 292 292 293 292 290 292 292 291 291 292
320 318 316 315 315 314 313 312 311 310 309 308 307 306 305 305 303 303 303 302 301 300 299 294 294 295 295 295 296 302 299 299 299 298 298 299 298 298 296 295 295 295 296 295 297 294 294 291 289 289 290 290 289 291 292 301 297 295 294 291 291 291 292
319 317 316 315 314 313 312 310 310 309 308 307 306 305 305 304 304 304 303 302 301 300 298 294 294 295 295 294 298 300 300 300 299 299 299 299 299 299 298 297 296 296 295 293 295 292 292 294 289 289 290 288 289 289 291 293 295 294 294 293 292 292 292
318 316 314 315 314 313 312 310 309 308 307 306 305 305 305 304 304 304 303 302 302 300 298 296 294 294 294 295 299 300 300 299 299 299 299 299 299 300 300 305 302 295 293 293 293 291 291 293 288 288 288 288 288 288 289 290 292 292 293 293 293 292 293
318 316 314 315 314 312 310 309 308 308 308 307 306 305 304 304 303 303 303 303 306 302 299 297 293 293 294 295 299 300 300 300 299 299 299 299 298 299 300 307 304 298 295 293 290 290 291 293 288 288 288 288 288 286 287 287 288 289 290 291 291 292 293
317 315 313 313 314 312 309 308 307 307 306 306 304 304 303 303 303 303 303 302 304 302 299 297 295 293 294 295 297 302 301 300 299 299 298 299 298 295 295 297 299 294 292 291 289 290 291 292 289 288 287 286 286 287 286 287 291 290 288 289 289 290 291
313 313 313 313 313 310 308 307 307 306 305 305 304 303 302 303 303 302 303 303 303 301 301 298 296 292 293 294 296 298 299 300 298 298 297 298 297 296 294 294 294 294 291 290 290 290 290 291 292 290 289 287 288 289 289 288 290 295 289 290 290 290 291
313 314 314 312 309 307 307 307 306 306 305 304 303 302 301 301 302 302 302 302 302 300 302 302 298 293 293 294 295 296 298 299 298 297 296 296 296 294 294 293 293 293 290 290 290 290 290 290 291 292 289 290 290 290 289 292 289 289 289 290 289 289 290
312 312 311 309 308 306 306 306 305 305 304 303 302 301 300 301 301 300 300 301 301 300 300 302 298 296 293 293 294 294 295 296 293 298 296 295 294 294 291 293 294 295 290 290 290 290 290 290 291 290 290 289 289 289 290 288 288 288 287 287 289 290 289
312 312 310 308 307 305 305 305 305 304 303 302 301 300 299 300 300 299 300 299 300 299 299 300 297 296 295 292 293 293 293 293 293 293 294 293 291 289 288 291 294 292 290 290 290 290 289 290 290 289 289 289 289 290 289 288 287 287 288 287 287 288 289
Wind_Speed
9 8 7 6 5 6 6 6 6 5 6 6 7 5 5 5 4 4 4 3 4 3 3 5 5 3 5 3 3 4 4 5 7 7 5 5 7 3 0 1 2 4 3 2 5 7 5 4 3 1 2 3 3 3 1 1 3 4 3 2 2 2 3
8 7 6 6 6 6 6 5 5 5 5 5 6 6 5 5 4 5 4 4 5 3 4 5 3 4 5 5 4 4 5 3 3 4 6 6 4 6 3 2 4 3 3 2 3 3 3 3 1 3 3 1 1 4 4 2 3 3 2 2 1 1 2
7 7 7 8 7 6 7 5 5 5 6 5 4 5 5 4 5 4 5 6 6 5 4 5 4 4 4 4 4 5 4 5 3 4 5 4 3 2 2 6 4 2 2 2 2 3 3 2 5 5 4 5 4 5 2 3 4 4 3 2 2 3 4
11 11 9 8 7 6 7 6 6 5 5 5 5 3 4 4 5 5 6 5 5 5 5 5 4 5 4 5 4 5 5 6 6 6 5 3 4 4 3 4 6 7 6 4 4 2 3 2 3 1 1 4 6 2 1 3 3 3 2 1 2 3 4
13 11 12 12 10 10 8 8 5 5 5 5 5 5 4 4 5 5 5 5 5 5 5 4 4 5 5 5 5 5 5 4 5 6 6 6 5 5 4 4 6 5 5 5 4 4 5 4 6 4 4 2 1 3 3 1 0 1 3 3 3 2 3
13 12 12 11 10 10 9 8 7 7 6 6 5 6 4 5 6 6 6 6 5 4 5 5 4 5 5 5 5 5 5 5 5 6 6 5 5 7 6 3 5 5 5 2 4 5 4 5 7 5 1 1 2 1 1 0 0 1 1 4 4 6 3
12 12 10 11 10 9 9 9 8 8 8 8 7 7 6 6 5 5 5 5 5 5 5 5 5 4 5 6 5 6 5 4 5 6 7 5 5 5 5 6 5 6 4 3 3 5 5 5 4 6 3 3 3 1 1 2 2 3 3 3 3 1 2
11 10 9 9 10 10 8 8 7 6 7 7 8 6 6 7 6 6 6 6 5 5 5 6 5 5 4 5 5 5 5 4 6 7 6 7 7 6 5 6 6 5 4 3 5 4 4 4 5 5 6 7 2 4 3 3 3 5 1 1 1 3 6
9 9 8 8 8 9 9 9 8 7 7 7 6 7 6 7 7 7 6 6 6 6 6 6 6 6 5 6 5 5 6 3 7 7 6 6 7 6 6 4 6 4 4 5 5 4 4 5 5 3 5 5 8 2 2 3 3 0 1 3 1 3 7
11 11 10 10 10 8 8 8 8 7 7 7 7 6 7 6 7 7 7 6 6 6 6 6 6 6 5 6 6 5 6 4 6 6 5 7 5 6 5 5 6 6 4 4 4 5 4 4 4 4 3 5 6 7 2 2 1 0 3 3 2 3 5
11 11 10 11 9 9 7 7 7 8 8 7 8 7 7 7 7 7 7 6 6 6 7 6 6 6 6 5 5 5 4 5 6 4 4 6 6 5 5 5 4 6 3 4 5 4 4 4 5 6 6 5 5 7 4 3 1 1 1 3 2 3 5
11 10 9 10 10 10 10 9 9 8 7 7 8 8 8 8 7 6 7 7 6 7 6 6 6 6 5 6 5 6 4 5 6 6 4 5 4 5 5 5 4 4 4 4 4 4 3 4 4 4 5 5 6 7 6 4 2 1 1 2 1 2 3
11 11 11 11 10 11 10 10 9 9 9 7 8 9 9 9 8 7 6 7 7 6 6 5 6 6 6 6 6 6 5 5 6 6 5 4 4 5 5 5 4 4 3 5 5 5 4 4 4 5 5 6 4 4 5 4 3 1 1 0 3 4 4
13 12 12 12 11 11 10 10 9 9 8 8 9 9 9 9 8 8 8 7 7 7 7 6 6 6 6 6 5 5 5 5 6 5 5 5 4 4 4 5 4 4 4 6 4 5 5 4 5 5 5 6 7 4 5 3 2 0 2 1 2 4 5
12 12 13 12 11 11 10 10 10 9 10 9 10 10 10 8 8 8 8 8 7 7 7 7 6 6 7 7 5 5 6 6 6 5 5 6 4 4 5 6 5 4 5 6 5 5 4 5 5 6 6 6 6 6 3 3 1 2 1 3 5 4 5
13 14 14 12 12 11 10 10 10 11 10 10 9 10 10 9 9 8 8 8 8 7 7 7 6 7 7 7 7 5 6 6 6 6 6 6 5 5 5 5 5 4 4 6 5 4 4 5 5 6 4 4 6 4 4 3 3 3 3 2 1 4 4
14 14 14 12 13 11 11 10 10 11 11 10 10 8 9 10 9 9 9 8 8 8 7 7 7 6 7 7 7 7 6 5 5 6 7 7 6 6 5 5 5 6 6 6 5 5 4 5 6 5 5 4 5 4 4 4 3 2 1 2 2 2 3
14 14 14 12 13 13 12 11 10 11 11 10 10 9 8 8 9 9 9 9 8 8 8 8 7 6 6 6 7 7 6 6 6 7 7 6 6 6 5 6 5 6 6 6 4 5 4 5 4 6 4 3 4 3 3 4 3 3 3 3 3 2 2
15 15 14 13 14 13 13 12 11 10 11 11 10 10 11 9 9 9 9 9 8 8 7 7 7 7 7 7 7 7 7 6 6 7 6 6 6 5 5 5 5 6 6 6 4 4 5 5 4 4 4 4 3 3 4 3 3 3 3 1 1 4 2
14 14 14 13 12 12 13 13 12 11 10 12 11 10 10 10 8 9 9 8 8 8 7 7 7 7 7 7 8 7 6 6 6 6 5 6 5 5 6 6 6 6 6 6 6 5 5 4 5 4 4 4 2 4 3 3 3 3 3 3 2 0 3
14 14 12 13 13 13 12 12 12 11 10 11 11 12 12 11 9 8 9 9 8 7 7 7 7 6 6 8 8 7 7 7 7 6 5 4 5 6 7 6 6 5 6 5 5 5 5 5 4 4 2 3 3 3 3 2 3 3 3 3 1 3 2
12 13 13 13 13 13 13 12 12 11 11 11 10 11 11 10 10 9 8 9 8 7 8 8 7 7 8 7 7 7 7 7 7 7 5 5 5 6 6 6 5 5 5 7 9 6 6 6 5 5 1 2 2 2 1 2 2 3 3 2 4 2 4
12 13 14 14 14 13 12 12 12 11 11 11 11 10 9 9 10 10 10 9 8 7 7 6 8 12 9 7 7 6 6 6 7 7 7 6 5 5 6 5 5 10 11 11 9 8 8 6 5 4 3 2 1 1 0 1 2 1 0 3 3 2 5
13 14 14 13 13 13 13 11 11 11 11 11 11 10 10 10 9 9 10 9 8 7 7 7 12 13 13 12 7 6 7 6 6 7 7 7 7 5 4 4 5 7 8 8 6 8 7 6 5 3 2 3 3 2 1 1 3 1 1 2 2 2 3
13 14 14 14 14 13 13 12 12 11 11 11 10 9 10 10 9 8 8 9 9 8 7 10 15 14 13 13 10 7 6 6 6 6 7 7 7 6 5 5 4 4 5 5 4 4 4 3 3 2 3 3 4 5 5 3 2 1 2 2 3 4 2
16 15 14 14 13 13 13 12 12 12 12 11 10 11 11 10 9 8 9 10 9 8 6 11 15 15 14 13 13 9 6 6 7 6 7 7 7 7 6 6 4 4 4 9 4 3 3 1 2 3 2 2 3 2 4 8 8 6 3 2 3 4 2
16 16 16 15 14 13 13 13 12 11 10 10 11 10 9 11 9 9 10 10 9 8 8 12 16 15 13 13 12 10 6 7 6 7 6 7 7 7 7 7 6 5 4 3 4 4 3 4 3 2 1 2 3 4 6 4 7 9 6 5 3 3 3
17 16 16 15 14 14 13 12 12 11 11 12 12 11 11 11 10 9 9 9 9 8 8 14 14 14 13 13 13 9 6 6 6 6 6 6 7 8 7 7 7 7 5 4 4 6 5 4 3 2 2 2 3 3 3 1 2 3 3 3 5 6 7
16 15 13 14 16 15 14 14 13 10 9 8 7 7 5 8 10 10 10 10 10 9 8 12 13 15 15 13 13 6 6 6 5 5 5 5 5 6 7 7 7 5 5 5 7 10 7 5 3 3 2 2 3 3 2 2 1 3 3 3 4 5 6
15 15 17 18 16 14 13 12 10 10 11 10 10 10 11 10 10 11 11 10 11 10 8 11 14 15 14 14 10 6 6 7 5 4 5 5 6 6 6 7 6 6 5 5 8 11 9 7 4 3 2 1 2 2 3 3 3 4 6 6 7 9 11
16 15 15 17 16 13 13 11 12 11 13 12 12 11 10 9 9 10 12 11 11 11 9 12 15 15 14 14 10 7 6 7 6 6 5 6 6 6 8 13 9 7 7 6 9 10 9 6 4 3 2 1 1 3 4 3 3 2 5 6 3 7 11
15 15 15 13 14 15 13 13 11 10 10 10 10 8 8 9 9 8 10 11 10 12 10 11 12 13 15 15 10 6 7 6 7 6 6 5 4 6 6 9 12 9 8 9 12 10 10 6 5 4 3 2 0 2 4 2 2 5 7 9 9 9 9
14 12 13 11 9 12 13 12 12 11 9 8 9 8 9 9 11 9 8 9 10 9 9 9 11 14 14 14 13 8 6 8 7 7 5 6 5 3 3 4 8 12 13 13 12 11 9 9 6 4 4 3 2 3 2 0 1 1 4 3 5 5 6
9 10 12 13 13 10 10 12 11 11 11 8 8 8 9 8 9 8 8 8 8 7 8 10 10 14 13 13 14 11 6 7 6 6 6 5 6 6 3 4 5 8 13 14 13 11 10 10 8 5 5 4 6 3 3 0 1 3 3 4 4 5 6
12 13 11 9 9 8 5 9 12 11 9 9 10 10 8 8 8 8 7 7 8 8 8 12 10 12 13 13 13 14 8 6 7 7 6 6 5 5 5 5 5 8 12 14 13 12 11 10 9 4 6 9 7 5 1 1 1 2 3 3 4 6 6
11 11 11 10 10 10 9 9 9 10 11 10 10 10 9 8 8 8 7 5 6 7 7 8 12 11 13 13 14 13 12 8 7 7 7 6 6 6 4 4 5 10 13 13 13 12 11 11 7 6 8 7 6 3 1 1 1 2 4 3 3 6 6
11 11 10 10 11 11 10 10 9 9 10 10 9 9 7 8 8 9 9 7 6 6 5 6 9 13 13 15 13 13 11 11 11 5 6 6 5 5 4 4 6 9 11 13 13 12 12 10 8 10 8 7 4 3 1 1 1 2 2 3 5 5 6
Wind_Direction
170 164 161 155 148 147 150 159 154 149 147 141 140 142 141 139 132 137 138 122 106 112 116 118 125 122 102 80 89 113 122 154 164 158 176 177 162 210 42 70 67 88 117 77 146 161 152 164 257 308 290 284 323 290 270 253 216 218 224 265 264 290 297
159 155 147 145 150 155 148 157 151 143 137 136 140 143 144 141 138 144 139 120 114 112 115 115 112 116 118 120 106 98 116 102 132 150 149 185 169 179 116 51 76 72 65 50 101 93 134 119 233 187 235 335 343 293 274 260 257 254 234 243 231 285 318
156 149 153 156 158 160 156 166 155 139 139 133 137 138 134 123 118 126 130 130 129 128 120 124 118 106 104 99 109 115 117 105 88 119 135 142 147 121 140 149 127 96 60 51 53 81 60 95 163 198 197 183 217 262 254 253 245 265 285 329 333 340 339
163 158 157 160 158 161 164 169 162 149 140 142 132 119 118 120 114 116 123 128 128 126 124 122 124 124 119 110 105 95 100 122 120 107 99 96 106 99 94 132 152 161 168 161 183 176 146 130 80 132 161 192 195 248 263 228 240 271 304 329 1 339 342
165 167 167 167 171 169 167 166 160 132 133 133 126 120 117 117 111 111 116 116 117 118 118 119 115 113 112 109 103 107 106 101 111 108 115 115 108 98 88 96 102 108 101 123 167 157 138 170 135 155 170 182 279 247 283 324 183 330 329 334 34 328 326
170 170 169 166 169 168 168 164 160 152 146 139 146 135 143 131 123 118 121 121 117 121 123 109 104 108 112 109 113 109 115 123 128 126 122 128 126 118 118 91 103 96 103 110 119 123 85 109 125 125 188 148 173 183 287 9 117 314 342 44 52 47 58
171 170 171 168 172 170 171 169 167 161 158 155 149 149 152 135 125 130 127 125 130 130 124 118 114 113 115 115 117 116 116 119 114 116 116 115 103 109 117 108 93 101 99 103 122 114 136 113 103 134 135 19 53 28 323 29 329 94 12 36 72 60 354
168 171 170 169 168 170 172 166 160 153 150 154 151 148 144 132 132 127 128 128 133 130 125 120 115 111 111 107 109 114 111 119 118 116 117 120 116 117 106 110 112 94 107 119 113 111 127 131 144 165 138 126 40 27 30 15 45 79 26 287 140 22 23
167 167 165 168 172 170 168 166 162 158 152 146 146 140 146 138 137 133 129 131 134 133 131 129 128 124 124 119 117 118 117 123 118 115 124 116 118 118 114 116 100 109 119 111 101 111 104 122 120 121 129 129 134 125 4 33 359 347 43 35 316 14 16
168 169 170 169 168 166 161 161 158 157 149 147 144 142 142 142 140 139 135 135 136 137 132 132 131 132 133 128 130 125 122 125 115 124 128 118 123 121 117 120 120 123 118 108 97 105 114 101 100 105 109 137 148 128 125 66 293 281 329 0 36 306 5
168 169 166 166 164 158 156 152 148 151 162 154 144 148 142 142 145 143 138 137 138 137 139 136 134 136 130 126 130 124 129 126 115 113 121 123 131 125 122 113 118 115 121 97 100 100 102 114 106 102 96 99 108 122 152 130 202 225 230 298 29 343 340
167 167 166 163 162 163 161 159 160 160 154 144 144 147 147 145 146 147 141 139 142 140 138 138 136 136 135 130 131 129 132 126 124 126 137 129 139 127 128 125 123 119 107 89 72 68 73 85 96 98 92 92 93 113 126 131 112 267 170 13 288 304 312
166 167 166 164 167 167 166 161 157 159 161 146 148 151 150 151 153 150 148 144 145 143 142 144 142 138 135 137 139 138 147 132 129 136 139 122 124 124 125 124 124 114 95 83 66 59 63 68 94 89 85 79 70 93 110 104 104 277 293 298 311 307 330
168 166 166 168 167 168 165 162 162 159 147 155 152 154 154 156 156 153 151 151 150 151 148 149 148 140 138 140 144 143 144 137 134 138 131 127 125 119 121 117 111 112 110 90 83 68 67 70 72 79 83 78 66 49 81 95 104 255 310 318 357 326 323
166 166 166 168 167 165 163 163 159 153 158 158 158 156 157 159 157 155 153 153 153 154 153 151 153 144 145 146 148 146 148 144 139 140 138 136 133 130 128 117 115 107 96 100 83 71 76 72 76 72 63 84 76 59 53 102 102 104 346 315 349 328 334
167 167 167 167 166 163 163 161 159 158 157 159 162 158 159 159 160 157 155 155 155 157 156 156 158 152 153 154 153 156 155 149 148 146 142 145 143 139 120 115 113 109 101 85 78 77 71 74 79 85 77 77 84 72 59 85 109 76 43 320 304 332 338
167 169 169 167 163 163 162 161 160 158 158 158 158 161 159 159 158 159 157 157 158 158 159 160 161 161 158 156 156 158 154 149 148 149 147 148 148 139 134 116 120 119 108 98 90 80 71 78 79 85 80 68 82 74 70 78 79 118 125 32 301 298 307
170 171 168 164 162 162 162 160 162 160 158 160 158 156 160 159 158 161 163 163 162 163 165 164 162 160 155 159 159 157 155 153 154 152 149 149 149 144 143 131 135 122 113 107 93 88 87 85 87 87 85 76 84 86 69 73 81 94 107 49 312 273 300
172 171 167 162 162 164 163 162 163 164 161 158 158 162 160 166 165 166 164 164 163 166 164 163 165 161 158 163 161 160 160 158 154 148 149 151 149 147 129 125 132 126 119 119 123 113 104 109 101 96 96 86 89 78 75 57 71 76 75 57 298 313 334
171 170 166 162 162 166 165 164 163 164 164 159 161 163 166 165 170 164 165 162 166 165 162 163 165 162 160 162 162 161 158 154 152 147 155 152 140 122 122 125 127 127 127 134 138 135 126 117 114 118 121 119 113 89 72 62 54 50 56 19 312 287 317
169 168 164 161 163 166 165 164 164 161 159 163 165 166 169 170 167 165 163 166 168 162 159 165 166 159 158 162 163 159 156 156 153 154 152 140 131 128 129 130 132 138 140 146 141 153 136 137 135 121 145 119 113 88 76 59 47 38 24 7 353 318 320
168 164 162 162 163 166 168 167 162 161 163 165 167 170 170 163 159 163 163 165 165 162 163 170 167 162 163 165 157 155 158 157 156 148 140 130 130 130 129 135 138 143 151 150 145 149 151 149 136 128 148 130 107 101 69 53 65 42 5 9 329 330 330
168 162 163 165 166 166 167 168 163 164 167 167 168 167 163 163 163 163 164 167 164 163 168 168 172 167 164 160 157 154 152 157 154 145 136 130 133 138 142 143 156 156 149 145 149 154 156 154 154 144 165 146 129 102 97 5 355 52 305 325 303 318 336
164 165 164 164 164 167 169 167 164 164 165 167 168 166 162 162 166 165 164 164 165 166 166 172 168 162 163 157 149 150 157 160 151 145 140 142 146 150 151 152 156 148 145 153 159 165 166 170 170 179 171 171 176 177 190 288 295 176 234 253 270 322 293
165 164 163 166 166 170 168 167 164 163 164 168 169 164 167 168 162 160 158 162 165 166 169 169 162 161 159 155 151 157 159 154 155 152 148 148 152 153 157 158 160 151 162 170 174 173 175 180 194 229 259 245 214 226 220 198 228 249 199 251 305 288 269
165 167 168 165 169 169 168 167 165 164 170 171 165 170 173 159 159 159 159 162 165 163 162 166 161 162 161 160 160 155 158 151 156 162 157 155 157 160 160 160 165 171 184 185 167 153 159 164 179 219 254 297 301 258 226 221 218 213 179 187 221 277 233
169 169 169 168 166 169 170 170 169 167 165 166 170 173 167 160 156 160 164 160 158 163 160 171 162 163 164 162 160 159 164 158 161 167 166 161 164 166 169 165 165 182 209 191 144 151 138 131 123 75 43 17 3 346 344 330 197 214 204 196 185 232 254
171 172 168 163 166 170 167 165 166 167 169 171 171 171 170 162 163 160 158 156 156 163 171 172 165 158 160 168 173 162 161 163 161 169 176 169 170 174 177 174 173 182 182 178 168 158 151 143 118 97 55 16 13 342 326 341 131 151 180 201 202 221 262
173 166 161 164 167 169 170 167 166 163 163 165 161 152 155 150 153 158 157 157 156 163 174 172 161 165 171 172 167 159 159 166 174 176 181 189 176 185 179 175 177 178 172 180 178 167 159 136 116 100 66 15 6 348 328 315 282 183 183 186 201 221 240
175 170 167 167 172 169 164 162 160 159 160 163 163 170 170 166 161 157 159 162 161 164 167 183 172 170 170 166 157 155 163 161 171 176 197 195 188 186 184 181 173 168 168 178 174 164 155 136 121 115 103 44 358 357 308 313 328 257 239 236 252 254 256
176 173 166 171 165 163 164 161 161 164 164 167 174 176 167 157 159 161 160 165 166 160 171 182 179 172 167 165 157 159 160 150 153 162 207 210 188 187 189 183 167 163 167 176 169 162 161 139 129 136 118 77 15 349 302 312 326 290 245 260 242 328 341
179 172 163 162 165 166 162 161 160 165 171 171 165 152 155 155 156 161 167 164 163 161 168 176 178 172 170 169 162 152 145 142 147 196 203 195 194 176 184 173 163 166 168 172 168 169 169 153 147 155 150 129 333 299 264 283 352 350 351 355 344 352 335
173 165 161 154 160 163 158 154 162 164 158 157 152 159 161 160 159 163 159 162 172 165 160 168 182 183 177 171 165 158 156 147 174 192 191 175 185 209 172 156 170 167 163 162 170 174 180 166 154 159 132 146 180 251 242 195 281 341 327 334 311 317 301
125 125 151 163 167 164 161 157 149 153 156 150 151 159 162 157 153 156 165 167 157 163 170 169 188 186 183 176 171 164 180 179 169 164 182 182 184 187 190 178 170 178 164 168 172 182 185 184 163 157 168 178 198 197 153 16 305 350 322 323 329 324 315
144 158 158 141 134 140 138 141 152 152 146 154 161 159 155 154 154 156 158 160 170 173 177 175 174 187 187 189 183 179 176 190 171 165 171 184 191 199 192 180 179 191 183 172 180 184 189 187 182 166 197 206 211 198 265 302 322 331 327 325 332 329 323
139 139 144 147 141 141 142 145 148 146 150 155 156 157 161 159 155 153 153 164 170 175 181 183 177 179 191 193 197 192 185 173 187 174 168 182 193 203 191 190 204 186 187 184 184 187 189 192 181 208 213 206 220 208 182 302 302 320 318 318 327 313 308
137 138 139 140 142 145 151 152 151 156 158 158 158 160 166 165 160 163 167 170 181 185 182 181 186 185 186 196 201 194 190 178 173 169 157 160 166 169 182 195 197 197 196 193 192 190 193 185 200 216 215 210 189 183 184 229 280 276 293 305 303 298 292